Seward, AK

5:54 AM AKDT on September 29, 2016 (GMT -0800)
Seward

Weather History for PAWD - October, 2014

Change the Weather History Date:

Sunday, October 19, 2014

  Actual Average Record
Temperature  
Mean Temperature 42 °F -  
Max Temperature 46 °F 42 °F 55 °F (1957)
Min Temperature 37 °F 33 °F 15 °F (1977)
Degree Days  
Heating Degree Days 24    
Moisture  
Dew Point 32 °F    
Average Humidity 72    
Maximum Humidity 93    
Minimum Humidity 51    
Precipitation  
Precipitation 0.00 in - - ()
Sea Level Pressure  
Sea Level Pressure 29.11 in    
Wind  
Wind Speed 15 mph (NNE)    
Max Wind Speed 22 mph    
Max Gust Speed 31 mph    
Visibility 10 miles    
Events      
Averages and records for this station are not official NWS values.
T = Trace of Precipitation, MM = Missing Value Source: NWS Daily Summary

Daily Weather History Graph

Daily Weather History Graph

Search for Another Location

Airport or City:

Trip Planner

Search our weather history database for the weather conditions in past years. The results will help you decide how hot, cold, wet, or windy it might be!

Date:

Astronomy

Oct. 19, 2014 Rise Set
Actual Time 8:47 AM AKDT 6:36 PM AKDT
Civil Twilight 8:04 AM AKDT 7:18 PM AKDT
Nautical Twilight 7:16 AM AKDT 8:07 PM AKDT
Astronomical Twilight 6:27 AM AKDT 8:55 PM AKDT
Moon 3:52 AM AKDT (10/19) 5:22 PM AKDT (10/19)
Length of Visible Light 11h 14m
Length of Day
9h 48m
Waning Crescent, 15% of the Moon is Illuminated
Oct 19
Waning Crescent
Oct 23
New
Oct 30
First Quarter
Nov 6
Full
Nov 14
Last Quarter

Hourly Weather History & Observations

Time (AKDT) Temp. Windchill Dew Point Humidity Pressure Visibility Wind Dir Wind Speed Gust Speed Precip Events Conditions
12:53 AM 39.0 °F 31.0 °F 36.0 °F 89% 29.25 in 10.0 mi North 13.8 mph - N/A   Clear
1:53 AM 39.0 °F 31.4 °F 36.0 °F 89% 29.23 in 10.0 mi NNE 12.7 mph - N/A   Clear
2:53 AM 37.9 °F 30.0 °F 36.0 °F 93% 29.23 in 10.0 mi North 12.7 mph - N/A   Clear
3:53 AM 37.9 °F 30.0 °F 35.1 °F 89% 29.22 in 10.0 mi North 12.7 mph - N/A   Clear
4:53 AM 39.0 °F 32.8 °F 35.1 °F 86% 29.22 in 10.0 mi NNE 9.2 mph - N/A   Clear
5:53 AM 37.9 °F 29.6 °F 35.1 °F 89% 29.21 in 10.0 mi NNE 13.8 mph 24.2 mph N/A   Clear
6:53 AM 37.9 °F 30.5 °F 34.0 °F 86% 29.21 in 10.0 mi NNE 11.5 mph - N/A   Clear
7:53 AM 37.9 °F 28.9 °F 34.0 °F 86% 29.20 in 10.0 mi NNE 16.1 mph - N/A   Clear
8:53 AM 37.9 °F 29.2 °F 34.0 °F 86% 29.18 in 10.0 mi NNE 15.0 mph 21.9 mph N/A   Clear
9:53 AM 37.9 °F 28.9 °F 34.0 °F 86% 29.18 in 10.0 mi NNE 16.1 mph 26.5 mph N/A   Clear
10:53 AM 39.9 °F 31.4 °F 34.0 °F 79% 29.16 in 10.0 mi NNE 16.1 mph 21.9 mph N/A   Clear
11:53 AM 43.0 °F 35.7 °F 33.1 °F 68% 29.14 in 10.0 mi NNE 15.0 mph 23.0 mph N/A   Clear
12:53 PM 45.0 °F 38.9 °F 34.0 °F 65% 29.11 in 10.0 mi NNE 12.7 mph 23.0 mph N/A   Clear
1:53 PM 46.0 °F 38.3 °F 30.9 °F 56% 29.09 in 10.0 mi North 20.7 mph 27.6 mph N/A   Clear
2:53 PM 46.0 °F 39.3 °F 30.9 °F 56% 29.06 in 10.0 mi North 16.1 mph 25.3 mph N/A   Clear
3:53 PM 46.0 °F 38.8 °F 28.9 °F 51% 29.04 in 10.0 mi North 18.4 mph 28.8 mph N/A   Clear
4:53 PM 44.1 °F 36.5 °F 28.0 °F 53% 29.03 in 10.0 mi North 17.3 mph 25.3 mph N/A   Clear
5:53 PM 42.1 °F 34.2 °F 28.9 °F 60% 29.02 in 10.0 mi North 16.1 mph 25.3 mph N/A   Clear
6:53 PM 41.0 °F 32.5 °F 28.0 °F 60% 29.00 in 10.0 mi North 17.3 mph 28.8 mph N/A   Clear
7:53 PM 39.9 °F 30.8 °F 28.0 °F 63% 29.00 in 10.0 mi NNE 18.4 mph 31.1 mph N/A   Clear
8:53 PM 39.9 °F 30.8 °F 27.0 °F 60% 29.00 in 10.0 mi North 18.4 mph 25.3 mph N/A   Scattered Clouds
9:53 PM 39.9 °F 30.0 °F 27.0 °F 60% 28.99 in 10.0 mi North 21.9 mph 31.1 mph N/A   Overcast
10:53 PM 39.9 °F 30.0 °F 26.1 °F 58% 28.98 in 10.0 mi NNE 21.9 mph 27.6 mph N/A   Overcast
11:53 PM 39.9 °F 32.1 °F 26.1 °F 58% 28.98 in 10.0 mi North 13.8 mph 23.0 mph N/A   Overcast